Date,TemperatureHighF,TemperatureAvgF,TemperatureLowF,DewpointHighF,DewpointAvgF,DewpointLowF,HumidityHigh,HumidityAvg,HumidityLow,PressureMaxIn,PressureMinIn,WindSpeedMaxMPH,WindSpeedAvgMPH,GustSpeedMaxMPH,PrecipitationSumIn
2013-8-1,66.2,61.6,56.2,56.9,54.8,52.5,88,79,69,30.02,29.99,7,2,7,0.00
2013-8-2,61.2,60.1,58.1,58.0,56.2,53.9,91,87,79,30.08,30.01,7,1,7,0.14
2013-8-3,72.7,64.7,59.6,62.1,58.7,55.6,93,82,63,30.08,30.01,7,2,7,0.00
2013-8-4,79.9,67.5,56.9,62.9,57.7,52.4,88,72,48,30.02,29.90,8,2,8,0.00
2013-8-5,86.0,72.0,59.0,63.2,57.3,53.2,85,62,35,29.97,29.88,9,2,9,0.00
2013-8-6,87.7,71.7,58.7,60.9,54.4,50.0,75,57,32,29.97,29.87,7,2,7,0.00
2013-8-7,86.0,71.8,59.8,60.3,55.1,51.3,78,58,34,29.97,29.90,8,2,8,0.00
2013-8-8,82.6,68.9,60.1,61.7,56.5,53.3,84,66,47,30.00,29.90,9,2,9,0.00
2013-8-9,82.1,70.9,60.3,60.0,55.8,51.5,76,60,45,29.92,29.80,8,2,8,0.00
2013-8-10,77.4,68.0,60.3,63.5,59.9,56.0,88,76,58,29.97,29.85,7,2,7,0.08
2013-8-11,75.6,66.2,58.9,58.5,55.6,52.9,82,70,50,30.02,29.95,7,2,7,0.01
2013-8-12,78.1,67.5,60.8,58.5,55.6,52.8,78,67,48,30.03,29.96,7,2,7,0.00
2013-8-13,82.1,68.9,59.6,58.8,55.5,53.3,81,64,39,30.06,29.89,6,2,6,0.00
2013-8-14,79.0,68.6,60.8,61.0,57.4,53.2,81,69,48,29.93,29.87,7,1,7,0.01
2013-8-15,69.1,67.0,63.0,65.3,62.2,59.2,89,85,80,29.96,29.88,3,0,3,0.05
2013-8-16,83.7,71.3,62.1,65.8,60.3,49.1,92,71,30,29.97,29.90,6,1,6,0.00
2013-8-17,78.5,69.8,64.4,61.8,57.9,54.8,74,66,53,30.04,29.96,8,2,8,0.00
2013-8-18,65.2,63.9,62.3,56.3,55.2,54.2,76,73,71,30.06,30.03,3,1,3,0.00
2013-8-19,79.4,67.9,62.5,60.0,55.6,51.1,75,65,49,30.07,30.02,8,1,8,0.00
2013-8-20,74.7,66.2,59.0,56.7,52.3,48.5,76,62,47,30.12,30.02,10,3,10,0.00
2013-8-21,79.2,67.8,56.2,56.3,52.4,47.9,80,59,44,30.05,29.90,8,2,8,0.00
2013-8-22,83.2,69.6,58.9,58.1,53.4,49.2,73,58,38,29.91,29.76,7,1,7,0.00
2013-8-23,74.7,67.6,62.6,58.8,56.2,54.4,80,67,53,29.85,29.78,8,2,8,0.00
2013-8-24,75.6,66.5,62.5,57.8,55.4,52.7,79,68,49,29.88,29.81,9,2,9,0.00
2013-8-25,72.5,64.9,56.7,58.2,54.5,50.2,81,69,55,29.90,29.82,11,1,11,0.01
2013-8-26,74.3,66.4,63.0,60.7,57.2,51.8,82,73,47,29.91,29.81,10,1,10,0.05
2013-8-27,79.2,68.9,63.0,62.1,58.2,53.6,82,70,53,29.92,29.75,6,1,6,0.01
2013-8-28,80.1,69.9,62.1,65.1,60.5,55.8,89,73,54,29.85,29.78,5,1,5,0.15
2013-8-29,73.1,67.6,65.2,66.1,63.0,59.9,91,85,71,29.97,29.81,5,1,5,0.48
2013-8-30,79.0,68.3,61.9,62.2,58.0,54.2,89,71,43,30.10,29.97,8,2,8,0.01
2013-8-31,79.0,67.5,58.0,59.6,56.2,52.4,88,68,50,30.04,29.80,8,2,8,0.00